sat.trackr.live / text

‹ back to catalog

STARLINK-11133 [DTC]

NORAD 59954 · 2024-107K

PAYLOAD ACTIVE UNKNOWN

§ Identity

Operator
Country
US
Launch date
2024-06-05
Launch site
AFETR
Launch vehicle
Mass (kg)
RCS (m²)

Purposes: comms

External: N2YO · Heavens-Above · Gunter

§ Orbital elements

Epoch: 2026-09-21T12:13:45.511392Z

Period
91.74 min
Inclination
53.1600°
Eccentricity
0.0001002
Mean motion
15.69695889 rev/d
Perigee alt
359.1 km
Apogee alt
360.4 km
Semi-major
6,737.9 km
B*
-1.2537e-5
RAAN
5.8014°
Arg perigee
71.2008°
Mean anomaly
288.9119°
Rev number
13,290

§ Raw data

STARLINK-11133 [DTC]1 59954U 24107K   26264.50955453 -.00002106  00000+0 -12537-4 0  99942 59954  53.1600   5.8014 0001002  71.2008 288.9119 15.69695889132907

JSON: /api/v1/satellites/59954 · /tle

For live sub-satellite position, see the globe view (requires WebGL).

§ Visibility from observer

Set your observer location to see the next 7 days of passes ≥ 10°. The values pass through the URL so the page stays shareable.

No JS? Fill the form by hand. The geolocation button needs JavaScript.